Jackson, KY

3:43 AM EST on November 14, 2019 (GMT -0500)
Carroll

Weather History for KJKL - September, 2019

Change the Weather History Date:

Monday, September 23, 2019

  Actual Average Record
Temperature  
Mean Temperature 71 °F 65 °F  
Max Temperature 77 °F 75 °F 92 °F (2010)
Min Temperature 65 °F 56 °F 39 °F (1999)
Degree Days  
Heating Degree Days 0 3  
Month to date heating degree days 0 24  
Since 1 July heating degree days 0 26  
Cooling Degree Days 6 3  
Month to date cooling degree days 280 125  
Year to date cooling degree days 1417 1103  
Growing Degree Days 22 (Base 50)    
Moisture  
Dew Point 61 °F    
Average Humidity 77    
Maximum Humidity 100    
Minimum Humidity 53    
Precipitation  
Precipitation T in 0.12 in 1.83 in (1988)
Month to date precipitation T 2.64  
Year to date precipitation 39.46 36.19  
Snow  
Snow 0.00 in 0.00 in - ()
Month to date snowfall 0.0 0.0  
Since 1 July snowfall 0.0 0.0  
Since 1 September snowfall 0.0 0.0  
Snow Depth 0.00 in    
Sea Level Pressure  
Sea Level Pressure 30.02 in    
Wind  
Wind Speed 3 mph (SSW)    
Max Wind Speed 9 mph    
Max Gust Speed 17 mph    
Visibility 10 miles    
Events      
T = Trace of Precipitation, MM = Missing Value Source: NWS Daily Summary

Daily Weather History Graph

Daily Weather History Graph

Search for Another Location

Airport or City:

Astronomy

Sep. 23, 2019 Rise Set
Actual Time 7:21 AM EDT 7:29 PM EDT
Civil Twilight 6:55 AM EDT 7:55 PM EDT
Nautical Twilight 6:25 AM EDT 8:25 PM EDT
Astronomical Twilight 5:54 AM EDT 8:56 PM EDT
Moon 1:11 AM EDT (9/23) 4:14 PM EDT (9/23)
Length of Visible Light 12h 59m
Length of Day
12h 07m
Waning Crescent, 33% of the Moon is Illuminated
Sep 23
Waning Crescent
Sep 28
New
Oct 5
First Quarter
Oct 13
Full
Oct 21
Last Quarter

Hourly Weather History & Observations

Time (EDT) Temp. Dew Point Humidity Pressure Visibility Wind Dir Wind Speed Gust Speed Precip Events Conditions
12:53 AM 72.0 °F 55.0 °F 55% 30.04 in 10.0 mi Variable 3.5 mph - N/A   Clear
1:53 AM 72.0 °F 54.0 °F 53% 30.04 in 10.0 mi Variable 3.5 mph - N/A   Clear
2:53 AM 71.1 °F 54.0 °F 55% 30.03 in 10.0 mi Variable 3.5 mph - N/A   Clear
3:53 AM 70.0 °F 55.0 °F 59% 30.02 in 10.0 mi Variable 3.5 mph - N/A   Clear
5:53 AM 69.1 °F 54.0 °F 58% 30.01 in 10.0 mi Variable 3.5 mph - N/A   Clear
6:53 AM 68.0 °F 55.0 °F 63% 30.02 in 10.0 mi Variable 4.6 mph - N/A   Overcast
7:53 AM 69.1 °F 55.0 °F 61% 30.03 in 10.0 mi Variable 3.5 mph - N/A   Mostly Cloudy
8:53 AM 70.0 °F 55.9 °F 61% 30.03 in 10.0 mi Calm Calm - N/A   Overcast
9:53 AM 72.0 °F 57.0 °F 59% 30.04 in 10.0 mi Calm Calm - N/A   Overcast
10:53 AM 73.0 °F 60.1 °F 64% 30.04 in 10.0 mi Calm Calm - 0.00 in   Overcast
11:53 AM 73.0 °F 60.1 °F 64% 30.04 in 10.0 mi SW 3.5 mph - 0.00 in   Overcast
12:27 PM 75.0 °F 61.0 °F 62% 30.07 in 10.0 mi Calm Calm - N/A   Overcast
12:41 PM 75.0 °F 61.0 °F 62% 30.06 in 10.0 mi Variable 5.8 mph - N/A   Overcast
12:53 PM 75.0 °F 62.1 °F 64% 30.02 in 10.0 mi Variable 4.6 mph - N/A   Overcast
1:23 PM 75.9 °F 62.1 °F 62% 30.06 in 10.0 mi Variable 4.6 mph - N/A   Overcast
1:53 PM 77.0 °F 63.0 °F 62% 30.01 in 10.0 mi North - - N/A   Overcast
2:53 PM 73.9 °F 64.9 °F 73% 30.00 in 10.0 mi SSW 8.1 mph - N/A   Overcast
3:53 PM 71.1 °F 64.9 °F 81% 30.00 in 10.0 mi North - - N/A   Overcast
4:53 PM 71.1 °F 64.9 °F 81% 30.00 in 10.0 mi Calm Calm - N/A   Overcast
5:53 PM 71.1 °F 66.0 °F 84% 29.99 in 10.0 mi South 3.5 mph - N/A   Overcast
6:53 PM 71.1 °F 66.0 °F 84% 29.98 in 10.0 mi North - - N/A   Overcast
7:53 PM 69.1 °F 66.0 °F 90% 29.98 in 10.0 mi Variable 3.5 mph - N/A   Mostly Cloudy
8:09 PM 68.0 °F 66.0 °F 93% 30.01 in 10.0 mi North - - N/A   Scattered Clouds
8:53 PM 66.9 °F 66.0 °F 97% 29.98 in 10.0 mi SSW 3.5 mph - N/A   Clear
9:53 PM 66.9 °F 66.0 °F 97% 29.99 in 10.0 mi Calm Calm - N/A   Clear
10:53 PM 66.9 °F 66.0 °F 97% 29.99 in 10.0 mi Calm Calm - N/A   Scattered Clouds
11:53 PM 66.0 °F 66.0 °F 100% 29.99 in 8.0 mi Calm Calm - N/A   Clear